Theta_e
325 327 342 343 344 347 349 350 349 348 347 348 349 349 348 349 349 349 350 350 349 350 349 349 349 348 349 349 349 349 349 349 349 349 349 350 351 350 351 351 350 346 352
327 329 341 342 344 345 348 348 349 347 347 346 347 348 347 347 349 350 350 349 350 350 350 348 349 349 349 349 348 348 348 348 347 347 346 347 348 351 351 351 351 348 351
327 331 337 342 342 344 345 347 347 347 346 346 345 344 343 342 343 347 348 349 350 350 349 348 349 349 348 348 348 347 347 347 346 345 344 340 343 350 350 351 351 351 351
327 330 333 340 341 343 344 345 346 345 344 344 344 343 343 342 340 343 347 348 349 349 348 348 348 347 347 346 346 346 346 345 343 341 338 339 342 348 349 349 350 350 349
325 328 331 339 340 341 342 344 344 344 344 344 343 342 343 340 339 341 344 347 347 347 347 347 347 346 346 345 346 345 344 342 341 338 336 337 339 345 348 349 348 349 348
324 327 331 338 340 340 340 341 343 343 343 343 343 342 343 343 342 343 342 343 345 345 346 345 345 345 344 344 344 344 341 338 335 333 337 341 338 346 347 347 346 346 346
324 327 331 338 339 340 340 342 342 342 342 342 342 342 342 342 342 341 341 343 343 341 340 342 344 343 342 342 341 339 335 333 329 330 333 338 341 346 346 346 346 345 345
325 328 333 339 342 341 337 338 340 340 341 340 340 340 340 341 341 342 343 343 343 343 341 340 343 343 342 340 338 335 332 330 326 326 330 336 343 345 346 345 344 344 343
325 325 328 329 335 336 337 338 340 340 340 340 337 337 340 336 333 341 343 343 341 340 341 342 342 341 339 336 335 332 329 327 320 324 328 332 342 344 344 343 341 340 340
323 323 323 323 327 327 327 338 338 338 338 337 334 331 331 330 330 336 338 339 339 337 337 339 339 338 336 333 331 329 326 324 318 322 324 332 340 341 340 339 337 336 335
324 321 321 321 322 327 329 332 335 335 333 331 329 326 325 324 325 326 330 333 333 332 332 336 336 333 331 328 326 323 319 314 316 319 323 335 336 336 335 334 332 331 330
320 323 320 320 320 323 323 325 324 325 323 321 319 320 320 321 323 322 324 328 330 328 327 330 330 324 316 311 313 314 310 313 316 320 325 334 335 334 332 330 327 327 326
322 324 322 323 318 320 318 316 315 316 317 317 316 318 320 318 318 316 312 308 305 308 303 303 302 307 307 309 308 309 311 313 315 321 329 332 331 331 330 329 326 324 323
320 323 323 322 318 317 317 313 309 309 310 311 311 314 314 312 309 306 301 300 298 296 294 295 297 304 306 307 307 307 307 308 311 316 324 327 327 328 328 325 323 321 321
319 322 322 321 319 316 314 309 305 305 305 304 303 305 306 309 306 304 298 295 293 293 292 293 298 304 305 304 304 305 304 304 306 312 317 322 323 323 323 322 321 319 318
318 319 320 320 319 315 312 305 303 302 302 302 302 301 301 301 302 300 295 292 291 292 291 292 298 303 301 303 301 301 300 300 301 304 309 314 319 319 319 319 318 317 317
317 319 319 319 317 316 311 305 300 300 301 300 299 298 296 294 292 291 290 290 290 290 290 291 295 299 301 301 299 300 299 297 297 297 299 299 301 313 314 315 315 315 315
316 318 318 319 316 315 312 306 301 298 297 297 297 295 293 292 291 289 288 287 288 288 289 291 295 296 296 298 298 298 297 297 294 294 294 294 294 295 306 310 312 313 313
315 317 317 317 315 313 310 306 299 297 296 294 294 293 291 291 290 289 288 287 288 288 288 291 288 293 295 294 294 293 292 291 291 290 288 289 291 289 291 303 305 307 309
314 316 318 315 315 312 309 304 300 296 293 293 294 292 293 292 290 289 288 287 288 288 287 287 287 287 288 290 289 286 286 287 286 286 285 287 287 287 286 287 288 294 303
312 315 315 314 313 309 304 302 299 297 295 292 293 294 291 291 291 291 289 289 289 288 288 287 286 287 286 287 285 285 285 285 285 285 285 284 285 284 284 284 284 286 288
312 313 314 314 310 309 308 306 302 298 296 294 294 293 293 292 292 289 289 290 291 289 288 288 287 286 287 287 283 283 280 282 285 285 284 285 283 284 284 284 283 284 285
309 312 313 313 309 308 307 298 295 294 294 292 293 292 291 292 291 291 289 288 289 290 289 289 289 287 285 287 287 286 280 280 281 283 282 283 282 282 283 283 283 284 285
294 300 313 313 310 308 301 300 297 298 294 292 292 292 292 291 291 291 291 290 289 288 287 288 289 288 287 284 284 285 284 284 281 279 281 282 282 283 282 282 283 284 283
291 297 311 309 308 304 302 300 300 298 294 292 291 291 291 291 292 290 289 288 288 288 288 289 286 285 285 285 285 284 283 281 280 280 278 279 280 281 281 281 282 282 283
287 291 299 304 300 300 300 299 299 293 291 289 289 289 289 290 291 291 289 290 290 290 289 289 288 286 285 285 285 284 281 281 279 279 278 277 277 279 280 280 281 281 282
Wind_Speed
5 6 14 11 10 9 12 13 12 11 12 12 13 13 11 12 13 14 14 16 16 15 14 17 17 18 18 18 17 17 17 18 17 17 15 17 18 19 18 17 16 14 19
7 8 15 12 11 11 8 11 12 11 11 12 12 13 11 10 14 15 15 16 17 16 16 16 18 18 19 19 19 19 19 20 17 15 15 15 16 19 20 20 17 17 20
6 7 12 13 12 11 8 8 11 11 11 11 11 9 9 8 7 10 14 15 17 16 18 18 19 20 20 20 20 20 20 20 17 15 14 6 10 19 20 19 18 20 21
7 5 5 13 12 10 9 7 9 10 10 9 7 9 13 15 9 13 13 16 17 16 14 17 20 19 22 21 20 18 19 18 17 14 7 6 9 19 20 20 21 22 21
6 6 6 12 13 12 11 8 7 9 10 10 9 10 16 17 19 19 15 13 16 18 19 20 21 23 23 22 21 20 20 19 15 11 8 7 5 15 20 20 19 21 20
6 6 8 13 13 12 11 10 8 9 10 10 11 12 16 20 21 18 9 12 21 23 23 22 22 20 21 21 21 21 20 18 13 9 8 11 7 19 20 20 20 20 20
6 5 6 13 13 12 12 11 9 9 10 10 11 11 15 17 17 19 19 21 22 22 21 23 21 20 18 18 19 19 18 15 10 8 7 8 10 20 21 20 20 22 22
6 4 4 10 12 8 3 2 7 9 11 8 6 8 10 14 18 22 24 27 24 21 22 24 24 23 20 17 20 19 17 15 9 8 6 8 16 21 22 22 22 23 23
6 4 5 4 5 6 1 6 7 8 7 8 13 9 12 10 12 14 30 28 25 24 19 23 23 24 21 16 18 19 17 15 8 5 7 6 15 19 22 24 24 23 22
5 4 6 4 5 6 3 9 11 12 13 17 17 17 17 20 26 10 27 24 24 24 20 20 24 24 19 17 17 18 17 15 7 6 5 8 17 20 20 21 21 21 19
5 5 5 5 5 5 6 9 13 18 17 18 16 14 10 9 19 12 23 21 22 22 19 20 23 22 19 17 17 16 14 5 6 4 4 14 17 18 18 18 19 18 19
12 8 5 7 5 5 6 8 7 7 6 7 7 8 7 10 11 13 16 17 17 18 18 19 21 20 12 6 6 10 4 6 5 4 4 17 19 19 18 17 17 18 18
11 7 7 8 6 6 5 5 3 4 4 5 7 7 9 7 7 7 5 5 6 11 5 7 6 6 8 6 6 5 5 6 4 5 11 17 18 18 18 17 17 16 16
12 10 9 10 9 6 4 4 4 5 4 4 5 7 7 6 6 7 5 6 6 3 6 4 4 7 9 9 8 8 7 5 4 4 11 17 17 17 18 17 15 14 15
12 12 11 11 11 8 7 5 4 4 4 5 5 6 4 6 7 7 5 5 5 4 5 4 6 6 9 9 7 9 8 8 7 5 7 16 15 15 15 14 13 13 13
13 14 14 12 11 11 8 6 4 4 5 4 4 5 7 5 4 7 6 5 5 5 4 4 5 7 8 8 9 8 8 7 8 9 7 10 17 16 14 13 12 12 12
16 16 15 13 13 13 11 8 5 5 5 4 4 5 6 8 6 6 5 4 5 4 7 6 7 8 8 8 9 9 8 7 8 9 9 7 7 14 13 13 12 11 11
13 17 15 13 13 13 10 8 7 5 4 4 4 4 6 6 9 7 5 5 4 5 4 5 6 7 7 7 6 6 7 7 9 9 8 6 6 5 10 13 12 11 11
16 17 16 15 14 13 11 8 7 8 5 4 5 5 6 6 6 7 7 5 6 5 5 6 5 4 8 7 8 6 6 6 7 7 7 6 7 6 4 12 12 12 10
14 15 15 11 13 13 10 8 6 5 5 4 5 5 8 5 6 5 5 7 7 7 5 5 7 6 5 8 8 7 5 5 5 5 5 5 5 5 5 6 5 5 10
11 15 16 13 14 11 9 8 5 6 5 4 4 8 7 7 7 8 4 6 6 8 8 8 6 10 4 6 5 5 5 6 6 4 4 3 5 4 5 5 3 4 4
14 14 15 14 14 11 9 7 4 5 3 3 4 5 6 8 8 7 7 5 5 7 8 9 9 4 3 1 4 4 3 3 3 3 2 2 4 3 4 5 5 4 4
8 13 14 15 15 12 12 9 7 7 4 3 3 3 4 6 7 7 7 5 5 5 7 8 8 8 6 3 3 3 4 4 3 1 1 1 3 2 3 4 4 4 4
8 5 12 12 15 12 13 10 14 8 7 4 4 4 6 6 5 7 7 8 7 4 5 4 4 3 3 4 3 4 4 4 4 2 1 0 1 2 2 2 3 3 4
11 8 8 11 12 12 12 10 11 9 4 6 6 10 5 6 5 6 6 7 7 5 5 7 6 6 3 3 3 3 4 4 4 4 3 1 1 0 1 2 2 2 2
14 13 9 10 10 11 9 10 10 11 11 10 7 6 7 4 3 6 5 5 5 6 7 6 6 8 5 6 3 3 3 2 1 3 3 1 1 1 1 1 2 2 2
Wind_Direction
229 190 178 187 194 206 197 189 186 184 188 186 184 179 177 175 176 174 174 165 165 168 155 154 148 147 139 130 119 111 104 106 102 99 98 100 98 99 93 93 97 100 102
152 178 179 187 195 196 202 186 187 185 191 200 203 187 192 183 181 172 169 168 168 159 155 148 142 138 133 122 117 109 107 101 97 88 79 89 97 96 93 89 88 96 97
154 161 180 187 193 199 208 219 184 193 199 215 225 203 153 105 313 182 174 164 165 158 156 153 147 137 126 121 112 110 108 101 95 87 86 83 95 100 97 96 96 95 94
151 155 177 192 196 198 202 219 204 205 211 213 216 195 158 149 138 285 203 170 158 148 153 151 140 130 118 109 109 111 107 99 89 80 77 83 100 102 98 100 95 93 92
151 163 184 198 204 203 205 226 215 220 221 225 226 209 168 164 166 210 223 159 136 124 124 123 124 122 121 124 121 116 107 98 88 83 74 73 86 102 100 93 90 89 92
165 174 192 198 203 209 214 228 235 228 234 226 223 216 190 184 196 194 163 171 128 117 111 112 111 110 113 117 117 111 105 97 86 75 73 86 91 101 100 99 96 95 92
166 184 200 197 199 210 218 224 236 247 236 232 218 211 202 202 200 179 174 154 138 132 123 112 111 112 115 117 116 111 101 88 87 82 81 85 97 105 102 101 97 93 90
151 176 196 211 201 180 182 233 250 244 229 217 213 205 208 208 204 185 165 137 134 131 140 141 137 127 123 124 119 107 96 87 79 71 71 88 98 98 98 94 91 89 84
140 133 89 70 111 69 267 258 221 193 207 184 114 95 178 108 51 254 129 124 120 116 126 137 131 122 115 115 110 103 92 83 76 74 76 82 92 95 92 88 82 78 79
136 140 128 95 72 79 311 141 116 111 115 118 108 98 99 88 58 356 100 103 110 108 107 109 118 111 111 111 106 99 92 79 73 69 62 89 102 95 89 87 86 83 82
162 151 141 116 91 86 64 107 108 113 107 106 101 83 75 95 89 63 58 81 93 104 109 110 111 112 112 105 94 87 81 71 71 61 60 104 99 97 93 88 86 79 73
178 165 152 130 114 86 81 89 83 89 86 84 80 88 82 81 97 106 96 75 90 100 103 113 107 100 88 80 73 66 62 68 61 61 75 99 99 96 94 95 92 83 78
173 157 154 135 122 120 107 95 92 90 98 96 95 97 95 79 79 84 84 83 73 69 55 61 68 89 83 81 73 71 59 61 63 69 80 90 93 91 89 84 86 85 83
173 156 154 143 135 122 115 106 111 104 98 98 88 96 102 102 98 93 88 96 85 76 92 77 72 82 84 74 71 70 58 49 55 62 70 78 86 91 89 85 79 82 80
179 170 165 156 146 138 122 119 110 103 106 110 100 85 92 119 117 110 88 95 101 94 87 89 94 97 90 82 70 80 65 54 48 71 76 73 81 84 87 89 87 87 84
180 186 175 167 152 145 141 133 122 112 114 102 102 114 103 91 100 115 116 110 101 93 89 84 98 99 84 88 75 70 65 61 57 61 69 63 76 79 82 84 87 85 88
185 180 178 171 154 156 150 139 132 134 115 109 109 106 113 111 93 89 97 87 101 96 103 98 82 83 88 81 79 71 70 55 61 60 65 61 46 71 78 79 76 77 79
175 180 174 170 160 156 156 145 139 129 121 118 107 101 100 109 129 117 104 99 94 88 87 84 93 91 84 86 76 74 80 75 67 63 65 61 58 45 64 75 75 74 71
178 173 172 169 163 154 149 141 134 134 128 129 121 117 119 121 118 122 121 119 106 92 86 103 65 85 100 89 87 67 59 66 66 72 64 60 59 54 41 68 62 68 66
180 176 166 163 158 149 137 123 120 119 119 128 137 125 124 123 111 98 115 132 127 112 96 86 95 62 82 97 88 74 59 60 58 60 75 75 73 76 72 69 50 39 63
175 178 175 161 160 147 141 140 137 156 145 128 131 141 136 131 132 130 121 136 134 138 138 125 108 112 91 127 96 53 43 47 65 72 75 91 87 72 74 70 63 57 38
183 179 179 172 161 159 155 147 132 131 101 102 112 117 132 143 142 132 142 147 143 128 130 136 141 120 92 130 121 99 125 16 29 43 87 107 98 97 95 79 80 74 62
185 185 180 176 164 155 146 113 97 83 72 82 128 122 139 139 135 135 137 126 122 134 151 151 165 141 155 152 133 139 131 180 142 346 177 143 140 127 122 113 99 91 86
357 313 177 167 161 154 146 142 155 159 156 168 161 132 127 128 132 138 144 138 135 124 140 137 103 59 95 138 106 49 20 116 154 147 340 237 173 170 148 137 113 104 100
360 353 158 139 146 147 161 160 158 150 114 127 130 134 120 119 134 125 140 132 144 134 146 129 121 102 75 92 88 115 56 42 64 114 160 199 17 26 168 123 127 135 117
8 14 30 120 127 141 141 151 150 146 141 137 129 140 137 123 112 115 134 131 134 141 159 137 133 124 115 113 107 111 121 117 107 105 101 97 145 341 40 101 135 149 146